Location: Siratepeler Tepesi
(39.1042°N, 32.0781°E)
Time: 00:24:20
(UTC+00:00)

USA 238 DEB - Pass Details

Date: 11 April 2026
Orbit: 883 x 1328 km, 63.4° (Epoch: 10 January)

Event Time Altitude Azimuth Distance (km) Brightness Sun altitude
Rises 19:34:56 0° 328° (NNW) 4,002 7.8 -32.6°
Reaches altitude 10° 19:37:35 10° 331° (NNW) 3,099 6.9 -33.0°
Enters shadow 19:44:50 68° 41° (NE) 1,339 4.0 -33.9°
